Stations météo

réclame
Mon MeteoGroup
Berus, Allemagne (10704): Température de l'air & dewpoint: 21.04.2018 08:00:00 - 27.04.2018 08:00:00 (CEST)Berus, Allemagne (10704): Température de l'air 5cm & Température de l'air -5cm: 21.04.2018 08:00:00 - 27.04.2018 08:00:00 (CEST)Berus, Allemagne (10704): Température de l'air -20cm & Température de l'air -100cm: 21.04.2018 08:00:00 - 27.04.2018 08:00:00 (CEST)Berus, Allemagne (10704): Vitesse du vent & gusts: 21.04.2018 08:00:00 - 27.04.2018 08:00:00 (CEST)Berus, Allemagne (10704): Direction du vent: 21.04.2018 08:00:00 - 27.04.2018 08:00:00 (CEST)Berus, Allemagne (10704): reduced air pressure: 21.04.2018 08:00:00 - 27.04.2018 08:00:00 (CEST)Berus, Allemagne (10704): visibility: 21.04.2018 08:00:00 - 27.04.2018 08:00:00 (CEST)Berus, Allemagne (10704): Ensoleillement: 21.04.2018 08:00:00 - 27.04.2018 08:00:00 (CEST)Berus, Allemagne (10704): Quantités de précipitations: 21.04.2018 08:00:00 - 27.04.2018 08:00:00 (CEST)
Date & Time tt [°C] td [°C] tt 5cm [°C] tt -5cm [°C] tt -20cm [°C] tt -100cm [°C] ff [km/h] ff [knt] fx [km/h] fx [knt] dd ppp [hPa] vv [km] sd [min] rr [mm]
27.04.2018 08:00:00 5,8 3,4 4,7 8,6 12,8 12,5 9 5 12 6 NE 1015,3 16 17 0,0
27.04.2018 07:00:00 4,5 2,9 3,0 8,7 13,1 12,5 7 4 10 6 NE 1016,1 14 0 0,0
27.04.2018 06:00:00 4,8 3,1 2,3 9,0 13,3 12,5 6 4 9 5 ENE 1016,8 15 0 0,0
27.04.2018 05:00:00 4,8 3,0 2,0 9,5 13,6 12,5 4 2 9 5 NE 1017,5 17 0 0,0
27.04.2018 04:00:00 5,9 2,9 2,5 10,0 13,9 12,5 5 3 7 4 E 1018,0 34 0 0,0
27.04.2018 03:00:00 6,9 2,7 3,0 10,4 14,1 12,5 0 0 8 4 N 1018,1 53 0 0,0
27.04.2018 02:00:00 7,3 2,8 4,1 10,8 14,4 12,5 6 4 11 6 WSW 1018,7 51 0 0,0
27.04.2018 01:00:00 7,0 3,0 5,0 11,3 14,7 12,5 9 5 14 7 WSW 1019,2 48 0 0,0
27.04.2018 00:00:00 7,3 3,0 5,3 11,8 15,0 12,5 11 6 16 8 WSW 1019,4 55 0 0,0
26.04.2018 23:00:00 7,6 3,0 5,9 12,7 15,2 12,5 13 7 18 10 WSW 1019,6 54 0 0,0
26.04.2018 22:00:00 7,9 3,1 6,1 13,7 15,4 12,5 12 7 17 9 WSW 1020,0 52 0 0,0
26.04.2018 21:00:00 8,7 2,8 7,0 15,1 15,5 12,5 13 7 24 13 WSW 1019,6 52 17 0,0
26.04.2018 20:00:00 10,7 2,4 10,0 16,6 15,4 12,5 19 10 34 18 WSW 1019,0 55 41 0,0
26.04.2018 19:00:00 11,0 2,1 11,2 17,9 15,2 12,5 20 11 36 19 WSW 1019,2 62 50 0,0
26.04.2018 18:00:00 12,6 1,7 15,5 18,2 15,0 12,5 23 13 39 21 WSW 1019,0 52 37 0,0
26.04.2018 17:00:00 13,6 3,0 19,2 18,3 14,7 12,5 17 9 36 19 WSW 1019,1 66 12 0,0
26.04.2018 16:00:00 12,1 2,1 15,2 18,8 14,3 12,5 23 12 39 21 WSW 1019,9 53 29 0,0
26.04.2018 15:00:00 13,4 3,8 20,1 17,7 14,0 12,5 23 12 34 19 WSW 1019,7 36 43 0,0
26.04.2018 14:00:00 11,4 3,6 16,2 16,6 13,7 12,5 18 10 38 21 WSW 1020,3 59 17 0,0
26.04.2018 13:00:00 10,3 4,5 13,8 16,1 13,4 12,5 13 7 36 19 W 1020,7 50 25 0,0
26.04.2018 12:00:00 10,6 3,7 14,7 14,6 13,2 12,5 22 12 43 23 WSW 1020,4 45 47 0,0
26.04.2018 11:00:00 9,1 4,1 11,9 12,6 13,1 12,5 23 12 41 22 WSW 1020,5 49 37 0,0
26.04.2018 10:00:00 7,3 4,3 8,5 11,1 13,2 12,5 19 10 39 21 W 1020,5 35 26 0,0
26.04.2018 09:00:00 6,8 5,1 7,1 9,7 13,4 12,5 18 10 31 17 WSW 1020,4 25 50 0,0
26.04.2018 08:00:00 5,8 4,5 5,1 9,0 13,7 12,5 18 10 29 16 WSW 1019,8 22 53 0,0
26.04.2018 07:00:00 5,3 4,2 4,3 9,2 14,0 12,5 17 9 31 17 WSW 1019,1 21 0 0,0
26.04.2018 06:00:00 5,4 4,3 4,4 9,4 14,3 12,5 17 9 28 15 WSW 1018,8 20 0 0,0
26.04.2018 05:00:00 5,4 5,1 4,6 9,8 14,6 12,5 16 9 24 13 SW 1018,6 7 0 0,0
26.04.2018 04:00:00 6,0 5,4 4,9 10,4 14,9 12,5 12 7 20 11 SW 1018,1 11 0 0,0
26.04.2018 03:00:00 6,8 5,6 5,4 10,9 15,2 12,5 12 6 21 11 WSW 1017,8 17 0 0,0
26.04.2018 02:00:00 7,2 6,4 6,0 11,6 15,5 12,5 12 6 21 12 SW 1017,8 11 0 0,0
26.04.2018 01:00:00 8,6 7,1 7,1 12,3 15,8 12,4 13 7 22 12 W 1017,2 19 0 0,0
26.04.2018 00:00:00 9,1 8,3 8,0 13,0 16,1 12,4 14 8 27 15 WSW 1016,7 12 0 0,0
25.04.2018 23:00:00 9,5 8,9 8,5 13,8 16,3 12,4 15 8 25 13 WSW 1016,5 11 0 0,0
25.04.2018 22:00:00 10,0 9,7 9,7 14,6 16,5 12,4 19 10 25 14 SW 1015,9 9 0 0,0
25.04.2018 21:00:00 10,1 9,9 10,1 15,5 16,7 12,4 16 9 27 14 SW 1015,3 5 0 1,3
25.04.2018 20:00:00 10,5 10,0 10,5 16,5 16,8 12,4 14 7 32 18 WSW 1014,9 7 0 0,6
25.04.2018 19:00:00 10,9 9,5 10,6 17,9 16,7 12,4 18 10 37 20 W 1014,9 13 0 0,4
25.04.2018 18:00:00 12,3 8,5 13,0 19,5 16,5 12,4 24 13 47 25 WNW 1014,6 39 11 0,0
25.04.2018 17:00:00 16,0 9,1 19,5 19,7 16,2 12,4 29 16 50 27 WSW 1013,4 22 51 0,0
25.04.2018 16:00:00 15,9 9,9 19,7 18,1 16,1 12,4 33 18 57 31 SW 1013,9 15 35 0,0
25.04.2018 15:00:00 13,7 9,6 15,5 17,0 16,1 12,4 27 14 39 21 SW 1014,8 31 1 0,1
25.04.2018 14:00:00 13,5 9,2 15,5 16,9 16,0 12,4 24 13 47 25 SW 1014,8 35 0 0,0
25.04.2018 13:00:00 13,3 8,9 14,0 17,1 15,8 12,3 22 12 50 27 WSW 1014,6 32 4 0,0
25.04.2018 12:00:00 13,1 9,1 13,9 16,9 15,7 12,3 23 12 44 24 WSW 1014,5 18 11 0,0
25.04.2018 11:00:00 13,2 9,5 14,8 15,8 15,7 12,3 22 12 44 24 WSW 1014,3 13 12 0,0
25.04.2018 10:00:00 12,9 9,5 14,5 14,6 15,8 12,3 24 13 37 20 WSW 1013,5 12 8 0,0
25.04.2018 09:00:00 12,1 9,0 12,4 13,9 16,0 12,3 21 11 33 18 WSW 1013,5 15 26 0,0
25.04.2018 08:00:00 11,7 8,6 11,2 13,3 16,2 12,3 19 10 30 16 SW 1013,1 27 53 0,0
25.04.2018 07:00:00 10,4 8,1 9,4 13,5 16,4 12,3 18 10 32 18 SW 1013,0 22 0 0,0
25.04.2018 06:00:00 10,8 8,0 9,6 13,7 16,7 12,3 19 10 27 15 SW 1012,7 24 0 0,0
25.04.2018 05:00:00 10,6 7,9 9,0 14,0 17,0 12,3 17 9 24 13 SW 1012,5 26 0 0,0
25.04.2018 04:00:00 11,2 8,0 9,6 14,3 17,3 12,3 14 7 17 9 WSW 1012,8 28 0 0,0
25.04.2018 03:00:00 11,1 8,0 8,7 14,8 17,6 12,3 13 7 16 9 SW 1013,3 27 0 0,0
25.04.2018 02:00:00 11,6 8,1 9,8 15,4 17,9 12,3 13 7 16 9 WSW 1013,7 29 0 0,0
25.04.2018 01:00:00 11,8 7,8 9,4 16,1 18,2 12,2 13 7 15 8 WSW 1014,2 42 0 0,0
25.04.2018 00:00:00 11,8 7,6 9,3 16,9 18,5 12,2 10 6 13 7 SW 1014,6 44 0 0,0
24.04.2018 23:00:00 12,8 7,4 10,7 17,8 18,7 12,2 11 6 16 9 WSW 1014,9 52 0 0,0
24.04.2018 22:00:00 13,8 7,5 11,5 18,9 18,9 12,2 11 6 15 8 WSW 1015,1 56 0 0,0
24.04.2018 21:00:00 14,4 7,4 12,6 20,3 19,0 12,2 11 6 15 8 W 1015,1 54 0 0,0
24.04.2018 20:00:00 16,5 7,6 16,0 21,8 18,9 12,2 10 6 24 13 WSW 1015,1 62 29 0,0
24.04.2018 19:00:00 17,6 6,8 18,9 23,1 18,7 12,2 16 9 31 17 WSW 1015,4 67 60 0,0
24.04.2018 18:00:00 18,1 6,8 20,6 24,1 18,4 12,1 21 11 33 18 SW 1015,9 41 60 0,0
24.04.2018 17:00:00 18,7 8,0 23,2 24,8 17,9 12,1 21 11 35 19 SW 1016,1 40 60 0,0
24.04.2018 16:00:00 18,1 6,6 22,5 24,6 17,4 12,1 22 12 35 19 SW 1017,3 20 60 0,0
24.04.2018 15:00:00 18,1 8,1 24,4 23,6 16,8 12,1 15 8 35 19 SW 1018,1 27 58 0,0
24.04.2018 14:00:00 16,8 7,6 22,8 22,3 16,4 12,1 17 9 33 18 W 1018,9 26 59 0,0
24.04.2018 13:00:00 16,3 8,7 21,8 20,5 16,0 12,1 18 10 34 18 WSW 1019,4 29 59 0,0
24.04.2018 12:00:00 14,4 7,6 19,5 18,2 15,8 12,1 22 12 36 19 WSW 1019,9 22 60 0,0
24.04.2018 11:00:00 13,1 7,9 16,6 16,2 15,8 12,1 15 8 24 13 WSW 1020,2 28 45 0,0
24.04.2018 10:00:00 11,5 7,0 14,3 14,4 15,9 12,1 13 7 24 13 W 1020,5 28 8 0,0
24.04.2018 09:00:00 10,4 7,4 11,5 13,5 16,1 12,0 11 6 18 10 W 1020,4 24 0 0,0
24.04.2018 08:00:00 9,2 8,0 9,1 12,8 16,4 12,0 13 7 16 9 WSW 1019,9 12 30 0,0
24.04.2018 07:00:00 7,8 7,4 7,0 12,9 16,6 12,0 10 5 15 8 SW 1020,1 3,5 0 0,0
24.04.2018 06:00:00 8,6 7,7 6,9 13,4 16,9 12,0 6 4 10 5 SW 1019,9 7 0 0,0
24.04.2018 05:00:00 9,1 8,2 8,0 13,7 17,3 12,0 8 4 11 6 WSW 1020,1 10 0 0,0
24.04.2018 04:00:00 9,3 8,4 7,8 14,1 17,6 12,0 8 4 12 6 WSW 1019,9 9 0 0,0
24.04.2018 03:00:00 9,7 8,3 7,3 14,7 17,9 12,0 7 4 20 11 SW 1019,8 16 0 0,0
24.04.2018 02:00:00 10,6 8,2 9,0 15,3 18,3 11,9 13 7 16 9 WSW 1019,5 25 0 0,0
24.04.2018 01:00:00 11,1 8,0 9,3 15,9 18,6 11,9 11 6 17 9 W 1019,6 37 0 0,0
24.04.2018 00:00:00 11,4 7,9 9,3 16,7 18,9 11,9 11 6 18 10 W 1019,4 42 0 0,0
23.04.2018 23:00:00 11,8 8,4 10,0 17,7 19,2 11,9 12 6 16 9 W 1019,2 34 0 0,0
23.04.2018 22:00:00 12,9 8,6 11,4 18,8 19,5 11,9 12 6 21 11 W 1018,7 35 0 0,0
23.04.2018 21:00:00 13,9 9,3 12,4 20,3 19,6 11,9 14 7 26 14 W 1018,2 34 0 0,0
23.04.2018 20:00:00 15,6 9,8 15,9 21,7 19,6 11,8 18 10 31 17 W 1017,5 31 0 0,0
23.04.2018 19:00:00 16,3 9,9 17,2 22,8 19,5 11,8 19 10 37 20 W 1017,3 32 4 0,0
23.04.2018 18:00:00 17,5 10,4 18,7 24,0 19,3 11,8 19 10 38 21 W 1016,7 42 34 0,0
23.04.2018 17:00:00 18,9 10,7 22,4 24,4 19,1 11,8 21 11 37 20 W 1016,0 21 57 0,0
23.04.2018 16:00:00 18,0 10,8 21,1 23,7 18,8 11,7 20 11 37 20 W 1016,4 43 27 0,0
23.04.2018 15:00:00 18,3 10,9 20,3 23,7 18,5 11,7 22 12 37 20 W 1016,6 27 14 0,0
23.04.2018 14:00:00 18,8 12,1 21,9 23,7 18,1 11,7 24 13 35 19 SW 1016,3 25 38 0,0
23.04.2018 13:00:00 19,0 12,3 23,6 22,7 17,8 11,7 19 11 30 16 WSW 1016,3 24 40 0,0
23.04.2018 12:00:00 18,3 12,7 21,3 21,4 17,6 11,7 16 9 27 14 WSW 1016,4 19 46 0,0
23.04.2018 11:00:00 18,0 13,5 20,7 19,4 17,5 11,7 12 6 21 11 SW 1016,2 22 58 0,0
23.04.2018 10:00:00 16,2 13,6 17,0 17,5 17,6 11,6 13 7 23 12 WSW 1016,1 19 39 0,0
23.04.2018 09:00:00 14,7 13,9 15,4 16,5 17,8 11,6 14 8 22 12 SW 1016,0 10 3 0,0
23.04.2018 08:00:00 14,3 13,1 13,9 16,6 18,0 11,6 10 5 21 11 WSW 1015,3 13 0 0,1
23.04.2018 07:00:00 13,9 12,8 13,3 16,8 18,1 11,6 12 7 39 21 W 1015,1 9 0 1,2
23.04.2018 06:00:00 15,9 11,2 15,0 17,2 18,3 11,6 14 7 21 12 W 1014,4 32 0 0,0
23.04.2018 05:00:00 16,1 10,5 15,2 17,5 18,5 11,6 13 7 24 13 WSW 1014,6 35 0 0,0
23.04.2018 04:00:00 16,9 10,2 16,0 17,7 18,7 11,5 19 10 35 19 WSW 1014,3 41 0 0,0
23.04.2018 03:00:00 17,5 10,1 16,6 18,0 19,0 11,5 20 11 30 16 WSW 1014,0 37 0 0,0
23.04.2018 02:00:00 17,1 10,2 16,0 18,3 19,2 11,5 16 9 26 14 SW 1014,1 43 0 0,0
23.04.2018 01:00:00 18,0 9,7 16,5 18,7 19,5 11,5 17 9 26 14 WSW 1014,2 42 0 0,0
23.04.2018 00:00:00 18,4 8,9 16,7 19,3 19,7 11,5 19 10 31 17 WSW 1013,8 44 0 0,0
22.04.2018 23:00:00 18,6 8,8 17,2 20,0 20,0 11,5 19 10 25 14 WSW 1013,6 44 0 0,0
22.04.2018 22:00:00 18,9 8,9 17,2 20,9 20,2 11,4 15 8 23 12 WSW 1013,6 42 0 0,0
22.04.2018 21:00:00 19,5 8,4 17,9 22,1 20,3 11,4 16 8 26 14 WSW 1013,0 46 0 0,0
22.04.2018 20:00:00 21,3 7,7 20,2 23,4 20,3 11,4 18 10 35 19 WSW 1012,4 56 1 0,0
22.04.2018 19:00:00 23,0 7,6 23,7 24,4 20,2 11,4 23 12 43 23 WSW 1011,9 45 14 0,0
22.04.2018 18:00:00 23,2 7,6 23,7 25,6 19,9 11,3 20 11 43 23 WSW 1011,8 58 22 0,0
22.04.2018 17:00:00 24,1 9,8 25,7 26,4 19,5 11,3 25 14 40 21 SW 1011,7 42 40 0,0
22.04.2018 16:00:00 24,2 12,1 26,5 26,7 19,1 11,3 27 15 46 25 SW 1012,0 29 53 0,0
22.04.2018 15:00:00 24,9 12,9 29,5 26,1 18,6 11,3 23 13 42 23 SW 1012,5 22 58 0,0
22.04.2018 14:00:00 24,8 14,0 30,4 25,5 18,1 11,2 22 12 36 20 SW 1012,9 25 60 0,0
22.04.2018 13:00:00 24,0 12,3 29,6 24,1 17,6 11,2 16 9 32 17 S 1013,2 24 60 0,0
22.04.2018 12:00:00 23,1 10,9 29,2 22,2 17,3 11,2 9 5 16 9 S 1013,9 36 60 0,0
22.04.2018 11:00:00 20,5 12,0 25,2 19,9 17,2 11,2 6 4 13 7 SE 1014,5 24 60 0,0
22.04.2018 10:00:00 17,8 11,4 21,6 17,7 17,3 11,2 6 3 11 6 SE 1015,0 13 60 0,0
22.04.2018 09:00:00 16,4 10,8 18,2 16,2 17,5 11,2 6 3 12 6 ESE 1015,3 9 60 0,0
22.04.2018 08:00:00 15,3 10,7 13,5 15,6 17,7 11,2 6 4 9 5 NE 1015,4 10 46 0,0
22.04.2018 07:00:00 14,6 10,8 11,3 15,7 18,0 11,1 8 4 10 5 NNE 1015,5 7 0 0,0
22.04.2018 06:00:00 14,6 10,7 11,2 16,1 18,3 11,1 8 4 11 6 NNE 1015,4 7 0 0,0
22.04.2018 05:00:00 15,9 10,1 12,3 16,6 18,6 11,1 8 4 11 6 ENE 1015,4 14 0 0,0
22.04.2018 04:00:00 16,9 9,7 12,8 17,1 18,9 11,1 8 4 12 6 ENE 1015,7 18 0 0,0
22.04.2018 03:00:00 17,1 9,9 13,2 17,7 19,2 11,1 9 5 12 6 E 1016,1 20 0 0,0
22.04.2018 02:00:00 17,3 10,3 13,0 18,4 19,6 11,0 5 3 10 5 ENE 1016,6 16 0 0,0
22.04.2018 01:00:00 17,1 11,2 12,9 19,1 19,9 11,0 8 5 10 5 NNE 1017,0 15 0 0,0
22.04.2018 00:00:00 19,1 11,0 12,9 20,0 20,2 11,0 5 3 9 5 NNE 1016,8 18 0 0,0
21.04.2018 23:00:00 20,3 9,5 13,9 21,0 20,4 11,0 8 4 9 5 WSW 1016,6 36 0 0,0
21.04.2018 22:00:00 21,8 9,6 16,2 22,2 20,6 11,0 6 4 11 6 WNW 1016,5 25 0 0,0
21.04.2018 21:00:00 21,9 9,9 18,4 23,8 20,7 10,9 9 5 12 7 W 1016,3 32 0 0,0
21.04.2018 20:00:00 23,0 9,9 21,2 25,5 20,6 10,9 8 5 11 6 W 1016,1 34 58 0,0
21.04.2018 19:00:00 25,2 10,4 27,4 26,9 20,3 10,9 5 3 10 5 W 1016,0 32 60 0,0
21.04.2018 18:00:00 25,6 8,8 29,9 28,0 19,9 10,9 3 2 15 8 WSW 1016,4 39 53 0,0
21.04.2018 17:00:00 25,2 8,5 28,2 28,6 19,3 10,8 4 2 13 7 SW 1016,8 32 54 0,0
21.04.2018 16:00:00 25,8 10,4 31,4 28,2 18,7 10,8 7 4 16 8 WSW 1017,5 24 52 0,0
21.04.2018 15:00:00 25,9 10,6 33,9 27,6 18,1 10,8 5 3 14 7 NW 1018,0 23 60 0,0
21.04.2018 14:00:00 24,9 9,0 32,4 26,1 17,5 10,8 5 3 13 7 W 1018,6 26 60 0,0
21.04.2018 13:00:00 23,4 9,3 30,6 24,2 17,0 10,8 5 3 13 7 E 1019,5 18 60 0,0
21.04.2018 12:00:00 22,3 11,6 29,0 21,9 16,7 10,7 8 5 15 8 ENE 1020,1 14 60 0,0
21.04.2018 11:00:00 19,7 10,2 26,4 19,6 16,6 10,7 10 5 15 8 NNE 1020,6 12 60 0,0
21.04.2018 10:00:00 19,1 9,7 23,8 17,4 16,6 10,7 7 4 10 5 NE 1020,6 13 60 0,0
21.04.2018 09:00:00 18,2 10,2 20,1 15,7 16,8 10,7 7 4 12 6 NE 1020,6 12 60 0,0
21.04.2018 08:00:00 16,0 9,3 13,3 14,9 17,1 10,7 6 3 10 6 N 1020,9 14 40 0,0

tt = Température de l'air
td = dewpoint
tt 5cm = Température de l'air 5cm
tt -5cm = Température de l'air -5cm
tt -20cm = Température de l'air -20cm
tt -100cm = Température de l'air -100cm
ff = Vitesse du vent
fx = gusts
dd = Direction du vent
ppp = reduced air pressure
vv = visibility
sd = Ensoleillement
rr = Quantités de précipitations

stations d'obs. à proximité